Погода в Газимурском Заводе

Россия / Забайкальский край     51°32′52″N   118°20′26″E
темп.,
°C
ветер,
м/с
пор.,
м/с
влажн.,
%
обл.,
%
осадки,
мм/ч
давл.,
гПа
погр.,
м
20 января, чт
чт2000:00−31ююз11985 0.0 104211
03:00−32ююз11985 0.0 104211
06:00−32ю11985 0.0 104211
09:00−32ю11995 0.0 10439
12:00−22ю1186100 0.0 103996
15:00−18юв1180100 0.0 1036173
18:00−23ю1196100 0.0 10389
21:00−24ю1198100 0.0 10399
21 января, пт
пт2100:00−23ю1198100 0.0 103918
03:00−21св0098100 0.0 103814
06:00−21св00100100 0.1 103819
09:00−21с1110099 0.3 103816
12:00−18с019287 0.1 1037164
15:00−15с1188100 0.1 1034309
18:00−18ссв0099100 0.1 10359
21:00−18ссз1199100 0.3 103610
22 января, сб
сб2200:00−19сз1199100 0.3 103613
03:00−20сз11100100 0.4 103610
06:00−21сз1110075 0.1 103612
09:00−27з1110068 0.1 10399
12:00−18сз11875 0.0 1036122
15:00−14ссз11765 0.0 1034234
18:00−21зюз11955 0.0 10379
21:00−26зюз111005 0.0 10399
23 января, вс
вс2300:00−27юз111006 0.0 10419
03:00−29ююз1110052 0.0 10419
06:00−29ююз1110057 0.0 10419
09:00−30ююз1110062 0.0 10429
12:00−19с01915 0.0 103893
15:00−15ссв11845 0.0 1035168
18:00−22ююв001005 0.0 10379
21:00−26ююз1110062 0.0 10399
24 января, пн
пн2400:00−28ююз1110075 0.0 10409
03:00−28ю1110092 0.0 10409
06:00−29ююз1110096 0.0 10409
09:00−30ююз1110093 0.0 10399
12:00−19юз009167 0.0 103493
15:00−15ссз008272 0.0 1030161
18:00−22ююз0010082 0.0 10329
21:00−25юз11100100 0.0 10339